Tracking 27419 objects as of 10-Jun-2023
HD Live streaming from Space Station
objects crossing your sky now

STARLINK-1393

Track STARLINK-1393 now!
10-day predictions
STARLINK-1393 is classified as:


NORAD ID: 45678
Int'l Code: 2020-035X
Perigee: 553.5 km
Apogee: 555.1 km
Inclination: 53.1 °
Period: 95.6 minutes
Semi major axis: 6925 km
RCS: Unknown
Launch date: June 4, 2020
Source: United States (US)
Launch site: AIR FORCE EASTERN TEST RANGE (AFETR)
Your satellite tracking list
Your tracking list is empty




NASA's NSSDC Master Catalog

Two Line Element Set (TLE):
1 45678U 20035X   23160.61177390  .00013541  00000-0  92554-3 0  9998
2 45678  53.0518 244.0982 0001163 136.2483 223.8599 15.06425720167511
Source of the keplerian elements: AFSPC